Showing default

HBTSS-SV1, 58960

Orbit data source: Space-Track

HBTSS-SV1, 58960 is a payload satellite owned by MDA (US) in LEO that was launched on Wed, 14 Feb 2024 UTC via an FALCON 9 launch vehicle from the Air Force Eastern Test Range (AFETR). Payload-class satellites include a variety of spacecraft equipped with specific instruments for various scientific and technological missions. These include communications satellites like Starlink; space stations such as the ISS; scientific satellites like the Hubble; Earth observation satellites from companies like Planet Labs, Umbra, and HawkEye 360; GPS; miniature CubeSats for education and research; and military/defense satellites.

Loading next visibility...
Identifier
58960, 2024-028F
Orbit
LEO
Last TLE update
2 days ago
Origin
Manufacturer
L3Harris SIS
Mission
Operational Commercial Early Warn
Bus & Motor
HBT-L3H, Unknown motor
Mass
~1,000 kg wet, ~1,000 kg dry
Launch date (UTC)
2024-02-14 (1 year ago)
Launch vehicle
FALCON 9
Launch site
Air Force Eastern Test Range (AFETR)
Object type
Payload
Rocket body
Debris
Shape & HBR
Box + 2 Pan, 2 m
Radar Cross Section
1.012 m², Large (>1 m²)

Expand to show TLE details & history

TLE from 2 days ago
0 HBTSS-SV1
1 58960U 24028F   25127.34585439  .00000113  00000-0  14014-3 0  9990
2 58960  39.9984  98.2201 0010467  89.8904 270.3051 13.96682402 48157
Epoch: 2025-05-07T08:18Z
Definitive object data (Epoch: 2025-05-07T08:18:01.819Z)
Latitude
-0.00004°
Longitude
108.28044°
Altitude
904.749 km
Speed
7.401 km/s
True Right ascension
06h 32m 52s
True Declination
0° 00' 00"
Sunlit
Object was in daylight at TLE epoch
Visualization TLE readout
Latitude
39.74643°
Longitude
178.95281°
Altitude
900.308 km
Speed
7.411 km/s
Apparent Right ascension
08h 21m 43s
Apparent Declination
4° 31' 31"
Sunlit
Object is in daylight
Visualization observer readout
Local Sidereal Time
16:54:11
Azimuth
300.139° NW
Elevation
-24.919°
Doppler factor
1
Orbital elements
Apogee altitude
915.237 km
Perigee altitude
899.985 km
Semi-major axis
7,285.748 km
Eccentricity
0.0010467
Inclination
39.9984°
RAAN
98.2201°
Arg. of periapsis
89.8904°
True anomaly
270.18516°
Mean anomaly
270.3051°
Eccentric anomaly
270.24513°
Mean motion
3.49005 °/min
BSTAR
0.00014014
Orbital period
103.15 mins
Loading maneuver chart data...
Loading SW <> Apogee altitude chart data...
Loading historical data...
Loading historical data...
Loading historical data...
Loading historical data...
Loading historical data...
Loading historical data...
Loading historical data...
Other satellites on launch #28 in the year 2024 (2024-02-14 UTC)

HBTSS-SV1 Visibility forecast

Observer location: undefined°, undefined°

Span
Click to sort rows by Start time (UTC) header in descending order
Start Az.
Max El. time (UTC)
Max El. Az.
Max El.
End time (UTC)
End Az.
9 mins2025-05-09 23:58:58.740Z200.266° SSW2025-05-10 00:02:58.740Z151.075° SSE26.389°2025-05-10 00:07:58.740Z90.928° ESE
10 mins2025-05-10 01:46:58.740Z244.76° WSW2025-05-10 01:51:58.740Z138.447° SSE43.176°2025-05-10 01:56:58.740Z81.976° E
10 mins2025-05-10 03:35:58.740Z271.955° WNW2025-05-10 03:40:58.740Z87.985° E44.573°2025-05-10 03:45:58.740Z92.963° ESE
10 mins2025-05-10 05:24:58.740Z275.512° WNW2025-05-10 05:29:58.740Z178.226° S40.412°2025-05-10 05:34:58.740Z123.137° SE
7 mins2025-05-10 07:14:58.740Z250.967° W2025-05-10 07:17:58.740Z213.318° SW20.626°2025-05-10 07:21:58.740Z169.875° S
|